Location: Newark
(51.2625°N, 13.3939°E)
Time: 21:11:51
(UTC+00:00)

Transit 4A - Visible Passes

Search period start: 15 November 2019 00:00
Search period end: 25 November 2019 00:00
Orbit: 868 x 976 km, 66.8° (Epoch: 14 November)

Date Brightness Start Highest point End Pass type
(mag) Time Alt. Az. Time Alt. Az. Time Alt. Az.
15 Nov 10.6 01:14:15 12° NNE 01:14:15 12° NNE 01:14:44 10° NNE visible
15 Nov 9.7 02:57:47 18° N 02:58:36 19° N 03:02:42 10° NE visible
15 Nov 9.1 04:41:27 10° NNW 04:46:50 33° NNE 04:52:07 10° E visible
16 Nov 10.5 01:23:29 12° NNE 01:23:29 12° NNE 01:24:12 10° NNE visible
16 Nov 9.7 03:07:01 18° N 03:08:25 20° NNE 03:12:41 10° ENE visible
16 Nov 8.8 04:50:47 10° NNW 04:56:26 41° NE 05:01:57 10° ESE visible
17 Nov 10.4 01:32:45 13° NNE 01:32:45 13° NNE 01:33:48 10° NE visible
17 Nov 9.6 03:16:15 19° N 03:18:13 22° NNE 03:22:44 10° ENE visible
17 Nov 8.5 05:00:06 10° NNW 05:05:58 52° NE 05:11:39 10° ESE visible
18 Nov 10.3 01:42:01 14° NNE 01:42:01 14° NNE 01:43:30 10° NE visible
18 Nov 9.5 03:25:31 19° N 03:27:58 25° NNE 03:32:46 10° ENE visible
18 Nov 8.1 05:09:26 10° NW 05:15:25 69° NE 05:21:14 10° SE visible
19 Nov 10.2 01:51:18 16° NNE 01:51:18 16° NNE 01:53:20 10° NE visible
19 Nov 9.3 03:34:50 20° NNW 03:37:40 29° NNE 03:42:45 10° E visible
19 Nov 7.8 05:18:48 10° NW 05:24:48 90° SW 05:30:38 10° SE visible
20 Nov 10.1 02:00:38 17° NNE 02:00:38 17° NNE 02:03:17 10° NE visible
20 Nov 9.0 03:44:10 22° NNW 03:47:18 36° NE 03:52:40 10° E visible
20 Nov 7.9 05:28:12 10° NW 05:34:06 67° WSW 05:39:51 10° SSE visible
21 Nov 9.9 02:10:01 20° NNE 02:10:01 20° NNE 02:13:18 10° ENE visible
21 Nov 8.7 03:53:33 23° NNW 03:56:53 45° NE 04:02:27 10° ESE visible
21 Nov 8.1 05:37:39 10° NW 05:43:20 48° WSW 05:48:52 10° S visible
22 Nov 9.8 02:19:27 22° NNE 02:19:27 22° NNE 02:23:20 10° ENE visible
22 Nov 8.3 04:02:59 25° NNW 04:06:22 58° NE 04:12:07 10° SE visible
22 Nov 8.5 05:47:14 10° NW 05:52:29 34° WSW 05:57:39 10° S visible
23 Nov 9.5 02:28:56 26° NNE 02:28:56 26° NNE 02:33:22 10° E visible
23 Nov 7.9 04:12:28 27° NNW 04:15:48 76° NE 04:21:38 10° SE visible
23 Nov 9.0 05:56:57 10° WNW 06:01:35 24° WSW 06:06:08 10° SSW visible
24 Nov 9.3 02:38:29 31° NE 02:38:29 31° NE 02:43:19 10° E visible
24 Nov 7.7 04:22:02 30° NW 04:25:09 81° SW 04:30:58 10° SSE visible
